Regional Weather Roundup
Issued by NWS

Home | Current Version | Previous Version | Graphics & Text | Print | Product List | Glossary On
Versions: 1 2 3 4 5 6 7 8 9 10 11 12 13 14 15 16 17 18 19 20 21 22 23 24 25 26 27 28 29 30 31 32 33 34 35 36 37 38 39 40 41 42 43 44 45 46 47 48 49 50
000
ASUS43 KFSD 291502
RWRSD

WEATHER ROUNDUP FOR SOUTH DAKOTA
NATIONAL WEATHER SERVICE SIOUX FALLS SD
1000 AM CDT WED MAR 29 2017

NOTE: "FAIR" INDICATES FEW OR NO CLOUDS BELOW 12,000 FEET WITH NO
SIGNIFICANT WEATHER AND/OR OBSTRUCTIONS TO VISIBILITY.


SDZ001>005-009-010-012>017-291600-
NORTHWEST AND NORTH CENTRAL SOUTH DAKOTA

CITY           SKY/WX    TMP DP  RH WIND       PRES   REMARKS
FAITH            N/A     44  44 100 MISG      30.10F
MOBRIDGE       CLOUDY    46  41  82 CALM      30.10F
$$

SDZ012>016-024>037-041>051-057-063-072>074-291600-
SOUTHWEST AND SOUTH CENTRAL SOUTH DAKOTA

CITY           SKY/WX    TMP DP  RH WIND       PRES   REMARKS
RAPID CTY ARPT CLOUDY    43  41  93 CALM      30.10F
PIERRE         CLOUDY    49  44  83 N6        30.13F
CUSTER         SUNNY     39  33  79 W3        30.09S
ELLSWORTH AFB  CLOUDY    41  41 100 CALM      30.09
PHILIP         CLOUDY    44  43  96 E5        30.12F
PINE RIDGE     CLOUDY    44  41  89 CALM      30.11S
SPEARFISH      FAIR      43  37  81 CALM      30.10S
WINNER         PTSUNNY   47  44  90 N12       30.12S
$$

SDZ004>011-016>023-039-040-291600-
NORTHEAST SOUTH DAKOTA

CITY           SKY/WX    TMP DP  RH WIND       PRES   REMARKS
ABERDEEN       PTSUNNY   43  36  76 N3        30.16F
WATERTOWN      MOSUNNY   48  38  68 SE5       30.16R
BROOKINGS      CLOUDY    49  39  68 E7        30.15R
SISSETON         N/A     46  41  82 S5        30.16F
$$

SDZ017-020-022-023-036>040-048>070-291600-
SOUTHEAST SOUTH DAKOTA

CITY           SKY/WX    TMP DP  RH WIND       PRES   REMARKS
SIOUX FALLS    LGT RAIN  47  42  83 E9        30.15S
HURON          CLOUDY    48  39  71 E6        30.14F
CHAMBERLAIN    PTSUNNY   49  44  85 N5        30.12S
MITCHELL       PTSUNNY   49  41  74 E9        30.14S
YANKTON        CLOUDY    46  41  81 E15       30.11F
$$

ABBREVIATIONS USED IN REMARKS
   TC - TEMPERATURE IN CELSIUS
  WCI - WIND CHILL INDEX
   HX - HEAT INDEX
  VSB - VISIBILITY





USA.gov is the U.S. government's official web portal to all federal, state and local government web resources and services.